Location: Tamazert
(32.6352°N, 5.2072°W)
Time: 05:30:06
(UTC+00:00)

Vanguard 2 - Pass Details

Date: 12 October 2022
Orbit: 553 x 2933 km, 32.9° (Epoch: 04 December)

Event Time Altitude Azimuth Distance (km) Brightness Sun altitude
Rises 17:34:29 0° 280° (W) 5,656 13.6 2.7°
Reaches altitude 10° 17:38:27 10° 271° (W) 4,952 13.7 1.9°
Maximum altitude 17:50:51 32° 216° (SW) 4,064 11.8 -0.7°
Drops below altitude 10° 18:05:18 10° 162° (SSE) 5,721 11.9 -3.7°
Sets 18:10:27 0° 153° (SSE) 6,621 12.1 -4.8°
